Content
SEND FEEDBACK

Daily
Averages
Monthly
Summary
United Kingdom

BROWNHILL, ENGLAND


Home > Europe > United Kingdom > England
Elevation: 377 feet     Latitude: 53 48N     Longitude: 002 30W

WEATHER
 
SELECT A DAY
Number of Records: 28,721;   Date Range: 7/1/96 - 8/21/14
 
SHARE

PRINT THIS DATA

[ ← Previous Day ]
WEATHER ALMANAC - OCTOBER 12, 2013
[ Next Day → ]
[ °C ]   °F
Weather ElementAverageHighLow
Temperature55.2 °F57.2 °F (11:20 am)51 °F (3:50 am)
Dewpoint48 °F50 °F (12:50 pm)44.6 °F (5:50 am)
Humidity75.6 %82 % (10:20 am)70 % (6:50 am)
Barometer30.21 in30.27 in (5:50 am)30.15 in (8:50 pm)
Wind Speed10.8 mph19.6 mph (6:50 am)
Weather ElementAverage
Visibility6.2 mi
Wind DirectionENE (67 °)

Weather ElementTotal
Precipitation---
Heating Degree Days10.9 (Base 65)
Growing Degree Days4.1 (Base 50)
Averaged from 40 records on October 12, 2013
WEATHER CONDITIONS BREAKOUT
WIND DIRECTION BREAKOUT
WEATHER BY HOUR - OCTOBER 12, 2013
[ °C ]   °F
Local TimeTemperatureDewpointHumidityBarometerVisibilityWind DirectionWind SpeedGust SpeedPrecipitationEventsConditions
3:50 AM51.0 °F45.0 °F74 %NNE (20°)6.9 mph
5:50 AM51.8 °F44.6 °F76 %30.27 in6.2 miNNE (20°)10.4 mphMostly Cloudy
6:20 AM51.8 °F44.6 °F76 %30.27 in6.2 miNE (40°)13.8 mphMostly Cloudy
6:50 AM52.0 °F45.0 °F70 %NE (40°)19.6 mph
6:50 AM53.6 °F44.6 °F72 %30.24 in6.2 miNNE (30°)18.4 mphMostly Cloudy
7:20 AM53.6 °F44.6 °F72 %30.24 in6.2 miNNE (20°)15.0 mphMostly Cloudy
8:20 AM53.6 °F46.4 °F77 %30.27 in6.2 miNNE (30°)12.7 mphMostly Cloudy
9:20 AM53.6 °F46.4 °F77 %30.27 in6.2 miNorth (10°)11.5 mphMostly Cloudy
9:50 AM53.0 °F47.0 °F73 %NNE (20°)13.8 mph
9:50 AM53.6 °F46.4 °F77 %30.24 in6.2 miNorth (360°)12.7 mphMostly Cloudy
10:20 AM53.6 °F48.2 °F82 %30.24 in6.2 miNorth (10°)11.5 mphMostly Cloudy
10:50 AM55.4 °F48.2 °F77 %30.24 in6.2 miNNE (20°)11.5 mphMostly Cloudy
11:20 AM57.2 °F48.2 °F72 %30.24 in6.2 miNNE (30°)12.7 mphMostly Cloudy
11:50 AM57.2 °F48.2 °F72 %30.24 in6.2 miNNE (30°)10.4 mphMostly Cloudy
12:20 PM57.2 °F48.2 °F72 %30.24 in6.2 miNNE (30°)8.1 mphMostly Cloudy
12:50 PM56.0 °F50.0 °F73 %NE (40°)6.9 mph
12:50 PM57.2 °F50.0 °F77 %30.24 in6.2 miNNE (20°)9.2 mphMostly Cloudy
1:20 PM57.2 °F50.0 °F77 %30.24 in6.2 miNorth (10°)8.1 mphMostly Cloudy
1:50 PM57.2 °F50.0 °F77 %30.24 in6.2 miNNE (20°)6.9 mphOvercast
2:20 PM57.2 °F50.0 °F77 %30.21 in6.2 miNorth (10°)5.8 mphMostly Cloudy
2:50 PM57.2 °F50.0 °F77 %30.21 in6.2 miNNE (20°)8.1 mphOvercast
3:20 PM57.2 °F50.0 °F77 %30.21 in6.2 miNorth (360°)9.2 mphMostly Cloudy
3:50 PM57.0 °F50.0 °F71 %NNE (20°)10.4 mph
3:50 PM57.2 °F50.0 °F77 %30.18 in6.2 miNorth (360°)10.4 mphMostly Cloudy
4:20 PM57.2 °F50.0 °F77 %30.18 in6.2 miNorth (10°)11.5 mphMostly Cloudy
4:50 PM57.2 °F50.0 °F77 %30.18 in6.2 miNorth (360°)10.4 mphMostly Cloudy
5:20 PM57.2 °F48.2 °F72 %30.18 in6.2 miNNE (20°)11.5 mphMostly Cloudy
5:50 PM55.4 °F48.2 °F77 %30.18 in6.2 miNE (40°)12.7 mphMostly Cloudy
6:20 PM55.4 °F48.2 °F77 %30.18 in6.2 miNE (40°)13.8 mphMostly Cloudy
6:50 PM55.4 °F48.2 °F77 %30.18 in6.2 miNNE (20°)9.2 mphScattered Clouds
6:50 PM55.0 °F49.0 °F74 %NE (40°)10.4 mph
7:20 PM55.4 °F48.2 °F77 %30.18 in6.2 miNNE (20°)10.4 mphScattered Clouds
7:50 PM55.4 °F48.2 °F77 %30.18 in6.2 miNNE (30°)10.4 mphMostly Cloudy
8:20 PM55.4 °F48.2 °F77 %30.18 in6.2 miNNE (20°)9.2 mphMostly Cloudy
8:50 PM55.4 °F48.2 °F77 %30.15 in6.2 miNorth (360°)6.9 mphScattered Clouds
9:20 PM55.4 °F48.2 °F77 %30.15 in6.2 miNNE (20°)13.8 mphScattered Clouds
9:50 PM54.0 °F48.0 °F73 %NE (50°)6.9 mph
9:50 PM55.4 °F48.2 °F77 %30.15 in6.2 miNNE (20°)6.9 mphScattered Clouds
10:20 PM55.4 °F48.2 °F77 %30.15 in6.2 miNNE (30°)12.7 mphMostly Cloudy
10:50 PM53.6 °F46.4 °F77 %30.15 in6.2 miNNE (30°)10.4 mphScattered Clouds
Hourly data recorded from EGNO, located miles away from Brownhill, England







STORIES FROM OUR PARTNERS